Weather History for Juneau, WI

Change the Weather History Date:

Tuesday, February 25, 2014

  Actual Average Record
Temperature  
Mean Temperature 7 °F -  
Max Temperature 13 °F 31 °F 49 °F (1976)
Min Temperature 0 °F 19 °F -16 °F (1993)
Degree Days  
Heating Degree Days 58    
Moisture  
Dew Point -6 °F    
Average Humidity 54    
Maximum Humidity 76    
Minimum Humidity 36    
Precipitation  
Precipitation 0.00 in - - ()
Sea Level Pressure  
Sea Level Pressure 30.16 in    
Wind  
Wind Speed 8 mph (West)    
Max Wind Speed 16 mph    
Max Gust Speed 23 mph    
Visibility 10 miles    
Events Snow    
Averages and records for this station are not official NWS values.
T = Trace of Precipitation, MM = Missing Value Source: NWS Daily Summary

Daily Weather History Graph

Daily Weather History Graph

Search for Another Location

Airport:

Trip Planner

Search our weather history database for the weather conditions in past years. The results will help you decide how hot, cold, wet, or windy it might be!

Date:

Astronomy

Feb. 25, 2014 Rise Set
Actual Time 6:37 AM CST 5:38 PM CST
Civil Twilight 6:08 AM CST 6:07 PM CST
Nautical Twilight 5:35 AM CST 6:40 PM CST
Astronomical Twilight 5:02 AM CST 7:13 PM CST
Moon 3:37 AM CST (2/25) 1:39 PM CST (2/25)
Length of Visible Light 11h 58m
Length of Day
11h 00m
Waning Crescent, 18% of the Moon is Illuminated
Feb 25
Waning Crescent
Mar 1
New
Mar 8
First Quarter
Mar 16
Full
Mar 23
Last Quarter

Hourly Weather History & Observations

Time (CST) Temp. Windchill Dew Point Humidity Pressure Visibility Wind Dir Wind Speed Gust Speed Precip Events Conditions
12:15 AM 11.5 °F -0.2 °F -0.8 °F 58% 30.21 in 10.0 mi WNW 8.1 mph - N/A   Overcast
12:35 AM 11.3 °F 0.7 °F -0.8 °F 58% 30.21 in 10.0 mi WNW 6.9 mph - N/A   Overcast
12:55 AM 11.1 °F 1.7 °F -1.1 °F 58% 30.20 in 10.0 mi WNW 5.8 mph - N/A   Mostly Cloudy
1:15 AM 10.9 °F 4.7 °F -1.1 °F 58% 30.21 in 10.0 mi WNW 3.5 mph - N/A   Scattered Clouds
1:30 AM 10.9 °F 1.4 °F -0.8 °F 59% 30.21 in 10.0 mi West 5.8 mph - N/A   Scattered Clouds
1:55 AM 10.8 °F 0.0 °F -1.1 °F 59% 30.20 in 10.0 mi West 6.9 mph - N/A   Overcast
2:15 AM 10.9 °F 1.4 °F -1.3 °F 58% 30.20 in 10.0 mi WNW 5.8 mph - N/A   Overcast
3:55 AM 10.2 °F 3.8 °F -1.3 °F 60% 30.19 in 10.0 mi West 3.5 mph - N/A   Scattered Clouds
4:15 AM 9.9 °F 1.6 °F -1.3 °F 61% 30.19 in 10.0 mi West 4.6 mph - N/A   Scattered Clouds
4:30 AM 9.3 °F 2.8 °F -1.3 °F 62% 30.19 in 10.0 mi West 3.5 mph - N/A   Clear
4:55 AM 8.6 °F 2.0 °F -1.1 °F 65% 30.19 in 10.0 mi West 3.5 mph - N/A   Clear
5:15 AM 8.6 °F 2.0 °F -0.9 °F 65% 30.19 in 10.0 mi West 3.5 mph - N/A   Clear
5:35 AM 7.3 °F - -1.3 °F 68% 30.19 in 10.0 mi Calm Calm - N/A   Clear
5:55 AM 6.6 °F -0.3 °F -1.5 °F 69% 30.18 in 10.0 mi West 3.5 mph - N/A   Clear
6:15 AM 6.4 °F -2.4 °F -1.3 °F 71% 30.19 in 10.0 mi WSW 4.6 mph - N/A   Clear
6:35 AM 6.6 °F -2.2 °F -0.6 °F 72% 30.18 in 10.0 mi WSW 4.6 mph - N/A   Clear
6:55 AM 5.0 °F -6.9 °F -1.3 °F 75% 30.19 in 10.0 mi WSW 6.9 mph - N/A   Clear
7:15 AM 5.2 °F -3.8 °F -0.9 °F 76% 30.19 in 10.0 mi WSW 4.6 mph - N/A   Clear
7:35 AM 6.8 °F -4.8 °F 0.5 °F 75% 30.19 in 4.0 mi West 6.9 mph - N/A Snow Light Snow
7:55 AM 7.5 °F -3.9 °F 0.5 °F 73% 30.19 in 5.0 mi West 6.9 mph - N/A Snow Light Snow
8:15 AM 7.7 °F -2.4 °F 0.5 °F 72% 30.19 in 10.0 mi West 5.8 mph - N/A Snow Light Snow
8:35 AM 7.5 °F -3.9 °F 0.1 °F 72% 30.19 in 10.0 mi WNW 6.9 mph - N/A Snow Light Snow
8:55 AM 7.9 °F -4.6 °F -0.4 °F 69% 30.19 in 10.0 mi West 8.1 mph - N/A   Mostly Cloudy
9:15 AM 8.4 °F -4.9 °F -0.6 °F 67% 30.19 in 10.0 mi West 9.2 mph - N/A   Scattered Clouds
9:35 AM 9.1 °F -3.0 °F -0.9 °F 64% 30.19 in 10.0 mi West 8.1 mph 17.3 mph N/A   Scattered Clouds
9:55 AM 9.3 °F -5.4 °F -2.2 °F 60% 30.19 in 10.0 mi West 11.5 mph - N/A   Scattered Clouds
10:15 AM 9.9 °F -4.0 °F -3.3 °F 55% 30.19 in 10.0 mi West 10.4 mph 16.1 mph N/A   Clear
10:35 AM 10.4 °F -4.1 °F -3.3 °F 54% 30.18 in 10.0 mi West 11.5 mph 16.1 mph N/A   Clear
11:15 AM 11.3 °F -2.9 °F -5.1 °F 48% 30.17 in 10.0 mi WSW 11.5 mph 18.4 mph N/A   Clear
11:35 AM 11.3 °F -2.2 °F -4.0 °F 50% 30.16 in 10.0 mi West 10.4 mph - N/A   Clear
11:55 AM 12.2 °F -1.8 °F -5.6 °F 45% 30.16 in 10.0 mi West 11.5 mph 18.4 mph N/A   Clear
12:15 PM 12.2 °F -4.3 °F -6.0 °F 44% 30.15 in 10.0 mi WSW 16.1 mph 20.7 mph N/A   Clear
12:35 PM 12.4 °F -1.6 °F -6.0 °F 44% 30.15 in 10.0 mi West 11.5 mph 18.4 mph N/A   Clear
12:55 PM 12.6 °F -2.0 °F -6.0 °F 43% 30.14 in 10.0 mi West 12.7 mph 21.9 mph N/A   Clear
1:15 PM 12.6 °F -0.6 °F -7.6 °F 40% 30.14 in 10.0 mi West 10.4 mph 23.0 mph N/A   Clear
1:35 PM 12.9 °F -0.9 °F -7.8 °F 39% 30.14 in 10.0 mi West 11.5 mph 19.6 mph N/A   Clear
1:55 PM 12.6 °F -2.7 °F -9.9 °F 36% 30.13 in 10.0 mi West 13.8 mph 23.0 mph N/A   Clear
2:15 PM 12.7 °F -2.5 °F -8.1 °F 39% 30.12 in 10.0 mi West 13.8 mph 21.9 mph N/A   Clear
2:35 PM 12.6 °F -1.4 °F -9.8 °F 36% 30.12 in 10.0 mi West 11.5 mph 20.7 mph N/A   Clear
2:55 PM 13.1 °F -2.6 °F -7.6 °F 39% 30.11 in 10.0 mi West 15.0 mph 23.0 mph N/A   Clear
3:15 PM 12.9 °F 0.7 °F -8.3 °F 38% 30.11 in 10.0 mi West 9.2 mph 16.1 mph N/A   Clear
3:35 PM 12.9 °F -1.6 °F -8.0 °F 39% 30.11 in 10.0 mi West 12.7 mph 18.4 mph N/A   Clear
3:55 PM 12.6 °F -0.6 °F -7.2 °F 41% 30.10 in 10.0 mi West 10.4 mph 16.1 mph N/A   Clear
4:15 PM 12.2 °F -1.8 °F -8.5 °F 39% 30.09 in 10.0 mi WNW 11.5 mph 18.4 mph N/A   Clear
4:35 PM 12.0 °F -0.4 °F -9.0 °F 39% 30.10 in 10.0 mi West 9.2 mph 18.4 mph N/A   Clear
4:55 PM 11.7 °F 1.1 °F -9.0 °F 39% 30.09 in 10.0 mi WNW 6.9 mph - N/A   Clear
5:15 PM 11.1 °F -3.2 °F -8.7 °F 41% 30.09 in 10.0 mi West 11.5 mph 17.3 mph N/A   Clear
5:35 PM 10.0 °F -2.9 °F -9.2 °F 42% 30.10 in 10.0 mi West 9.2 mph - N/A   Clear
5:55 PM 9.3 °F -4.6 °F -8.5 °F 44% 30.11 in 10.0 mi West 10.4 mph 18.4 mph N/A   Clear
6:15 PM 8.8 °F -5.3 °F -10.3 °F 42% 30.12 in 10.0 mi West 10.4 mph 18.4 mph N/A   Clear
6:35 PM 8.2 °F -6.0 °F -9.6 °F 44% 30.12 in 10.0 mi West 10.4 mph 16.1 mph N/A   Clear
6:55 PM 7.5 °F -5.0 °F -9.9 °F 45% 30.13 in 10.0 mi West 8.1 mph - N/A   Clear
7:15 PM 6.8 °F -5.9 °F -9.9 °F 46% 30.14 in 10.0 mi West 8.1 mph - N/A   Clear
7:35 PM 6.4 °F -6.3 °F -9.8 °F 48% 30.14 in 10.0 mi West 8.1 mph - N/A   Clear
7:55 PM 5.9 °F -7.0 °F -9.9 °F 48% 30.14 in 10.0 mi West 8.1 mph - N/A   Clear
8:15 PM 5.5 °F -9.3 °F -10.3 °F 48% 30.15 in 10.0 mi WNW 10.4 mph 17.3 mph N/A   Clear
8:35 PM 4.8 °F -7.1 °F -9.9 °F 51% 30.15 in 10.0 mi WNW 6.9 mph - N/A   Clear
8:55 PM 4.5 °F -9.8 °F -10.5 °F 50% 30.17 in 10.0 mi WNW 9.2 mph - N/A   Clear
9:15 PM 3.9 °F -10.4 °F -11.0 °F 50% 30.18 in 10.0 mi WNW 9.2 mph - N/A   Clear
9:35 PM 3.4 °F -11.1 °F -11.2 °F 51% 30.18 in 10.0 mi WNW 9.2 mph 18.4 mph N/A   Clear
9:55 PM 3.0 °F -10.5 °F -10.7 °F 53% 30.18 in 10.0 mi WNW 8.1 mph - N/A   Clear
10:10 PM 2.7 °F -12.0 °F -10.7 °F 54% 30.19 in 10.0 mi WNW 9.2 mph - N/A   Clear
10:35 PM 2.1 °F -11.6 °F -10.8 °F 55% 30.19 in 10.0 mi WNW 8.1 mph - N/A   Clear
10:55 PM 2.1 °F -11.6 °F -10.7 °F 55% 30.19 in 10.0 mi West 8.1 mph - N/A   Clear
11:15 PM 1.4 °F -11.3 °F -10.8 °F 57% 30.19 in 10.0 mi West 6.9 mph - N/A   Clear
11:35 PM 1.0 °F -11.7 °F -10.1 °F 60% 30.19 in 10.0 mi West 6.9 mph - N/A   Clear
11:55 PM 0.5 °F -14.6 °F -10.3 °F 60% 30.19 in 10.0 mi West 9.2 mph - N/A   Clear